Location: Clermont
(50.2608°N, 4.3172°E)
Time: 16:16:01
(UTC+00:00)

SPOT 1/Viking Rocket - Pass Details

Date: 13 August 2020
Orbit: 776 x 795 km, 98.5° (Epoch: 19 September)

Event Time Altitude Azimuth Distance (km) Brightness Sun altitude
Exits shadow 21:25:41 19° 193° (SSW) 1,831 5.1 -18.3°
Maximum altitude 21:29:16 48° 261° (W) 1,035 4.3 -18.7°
Drops below altitude 10° 21:34:21 10° 336° (NNW) 2,376 7.2 -19.1°
Sets 21:36:47 0° 342° (NNW) 3,310 8.2 -19.4°
